Погода в Лутугино

Украина / Луганская область     48°24′06″N   39°12′56″E
темп.,
°C
ветер,
м/с
пор.,
м/с
влажн.,
%
обл.,
%
осадки,
мм/ч
давл.,
гПа
погр.,
м
2 марта, вт
вт223:00−1ю118510 0.0 102821
02:00−1юз22876 0.0 102854
05:00−1зюз378610 0.0 1026204
08:00+1з6107654 0.0 1025843
11:00+4з8116099 0.0 10231085
14:00+4з81264100 0.0 10201009
17:00+3зюз51374100 0.0 1017823
20:00+3з71580100 0.0 1016822
3 марта, ср
ср323:000зсз81397100 0.6 1013741
02:00+1зсз71297100 1.4 1013623
05:000ссз71197100 0.8 1014690
08:00+1ссз71076100 0.9 10181074
11:00+1ссз8107299 0.1 10191108
14:00+3сз8116099 0.1 10201715
17:00+1сз5106995 0.1 1021540
20:00−1зсз497852 0.1 1023353
4 марта, чт
чт423:00−1зюз36790 0.0 1023184
02:00−1зюз49800 0.0 1023277
05:00−1зюз511800 0.0 1022339
08:00+2зюз711660 0.0 1021682
11:00+6зюз811510 0.0 10191017
14:00+7зюз913490 0.0 10171175
17:00+5юз614630 0.0 1014560
20:00+3юз717750 0.0 1014573
5 марта, пт
пт523:00+2юз718788 0.0 1013599
02:00+3юз8178343 0.0 1012570
05:00+3зюз7148597 0.0 1012554
08:00+4зюз8138498 0.0 1013562
11:00+7юз7107298 0.0 1013615
14:00+9юз7106796 0.0 1013963
17:00+7юз5117597 0.1 1012777
20:00+5ююз7137999 0.2 1012512
6 марта, сб
сб623:00+5ююз91582100 0.0 1011468
02:00+4юз61489100 0.0 1010447
05:00+4з4893100 0.1 1010365
08:00+1ссз7996100 0.8 1012375
11:00+1с5683100 0.1 1013615
14:00+1с4693100 0.6 1014422
17:00+1с5664100 0.3 10151116
20:00−1ссв3672100 0.3 1017602